Regional Weather Roundup
Issued by NWS

Home | Current Version | Previous Version | Text Only | Print | Product List | Glossary On
Versions: 1 2 3 4 5 6 7 8 9 10 11 12 13 14 15 16 17 18 19 20 21 22 23 24 25 26 27 28 29 30 31 32 33 34 35 36 37 38 39 40 41 42 43 44 45 46 47 48 49 50
000
ASUS46 KLOX 262012
RWRCA

SOUTHERN CALIFORNIA WEATHER ROUNDUP
NATIONAL WEATHER SERVICE OXNARD CALIFORNIA
100 PM PDT SAT JUL 26 2014

NOTE: "FAIR" INDICATES FEW OR NO CLOUDS BELOW 12,000 FEET WITH NO
SIGNIFICANT WEATHER AND/OR OBSTRUCTIONS TO VISIBILITY.

  -  STATIONS PRECEEDED BY AN ASTERISK (*) ARE NOT NWS OR FAA
     STATIONS AND ARE NOT SUBJECT TO NWS AND FAA QUALITY CONTROL.

CAZ041-042-087-262100-
LA AND ORANGE COUNTY COASTAL AREAS


CITY           SKY/WX    TMP DP  RH WIND       PRES   REMARKS
L.A. DOWNTOWN  SUNNY     83  64  52 VRB3      29.95F
L.A. AIRPORT   PTSUNNY   74  63  68 W8        29.98F
LONG BEACH     SUNNY     76  64  66 SW9       29.97F

CITY           SKY/WX    TMP DP  RH WIND       PRES   REMARKS
AVALON           N/A     73 N/A N/A NE3         N/A
FULLERTON      SUNNY     82  63  52 VRB7      29.96F
*GETTY CENTER    N/A     81  63  54 S6          N/A
HAWTHORNE      SUNNY     77  65  66 VRB7      29.97F
*LEO CARRILLO    N/A     74  64  69 S5          N/A
*LOS ALAMITOS  MOSUNNY   77  67  69 SW10      29.97F
*REDONDO BEACH   N/A     75  64  69 W3        29.97F
SANTA ANA      MOSUNNY   80  65  59 SW10      29.97F
STA MONICA APT SUNNY     76  63  64 SW6       29.98F
TORRANCE       MOSUNNY   81  66  61 W12       29.98F
*UCLA            N/A     77  63  61 S7        29.95F

$$

CAZ547-548-048-262100-
LA COUNTY VALLEYS AND INLAND EMPIRE


CITY           SKY/WX    TMP DP  RH WIND       PRES   REMARKS
BURBANK        SUNNY     87  60  40 S10       29.96F
VAN NUYS       SUNNY     91  56  30 S7        29.96F

CITY           SKY/WX    TMP DP  RH WIND       PRES   REMARKS
CORONA AIRPORT PTCLDY    90  65  43 W14G20    29.95F HX  92
CHINO          MOSUNNY   93  60  33 W7        29.96F HX  93
*CLAREMONT       N/A     90  54  29 SW7         N/A
MARCH AFB      MOSUNNY   95  54  25 W8        29.99F HX  92
*NORTHRIDGE      N/A     90  52  27 SE3         N/A
ONTARIO        PTSUNNY   92  56  29 W6        29.96F HX  90
*PASADENA        N/A     90  64  43 E1          N/A  HX  91
POMONA         SUNNY     88  61  40 W12G17    30.00
RIVERSIDE      MOSUNNY   92  56  29 W6        29.95F HX  90
SAN BERNARDINO MOSUNNY   95  46  18 W9        29.96F HX  91
*SAN GABRIEL     N/A     86  59  39 S12       29.91F
*SAN RAFAEL HI   N/A     92  66  42 E7          N/A  HX  95
*SAUGUS          N/A     92  49  22 S13         N/A
*WHITEMAN AP   SUNNY     90  59  35 SE8       30.01F
*WHITTIER HILL   N/A     84  66  54 S7          N/A
*WOODLAND HILL   N/A     93  52  24 NE6         N/A  HX  90

$$

CAZ054-055-262100-
LA AND SAN BERNARDINO COUNTY MOUNTAINS


CITY           SKY/WX    TMP DP  RH WIND       PRES   REMARKS
*ACTON           N/A     96  43  15 W12         N/A  HX  92
*BIG BEAR AIRP CLOUDY    73  39  29 N3        30.36S
*BIG PINES       N/A     82  42  24 W2          N/A
*CHILAO          N/A     87  42  20 S13         N/A
MT WILSON NWS    N/A     84  50  30 SW5         N/A
SANDBERG       SUNNY     91  34  13 S18G26    30.18F
*WARM SPRINGS    N/A     90  36  15 S3          N/A

$$

CAZ028-029-059-060-099-262100-
ANTELOPE VALLEY AND SURROUNDING AREAS


CITY           SKY/WX    TMP DP  RH WIND       PRES   REMARKS
LANCASTER      SUNNY     97  27   8 SW12G21   30.01F HX  91
PALMDALE       SUNNY     99  32   9 W15G24    30.01F HX  93
*POPPY PARK      N/A     98  39  13 SW17        N/A  HX  93

CITY           SKY/WX    TMP DP  RH WIND       PRES   REMARKS
29 PALMS       MOSUNNY  101  53  20 S10       30.03F HX  99
BARSTOW/DAGGET PTSUNNY  101  43  13 NE6       29.96F HX  96
BISHOP         MOSUNNY   99  22   6 S10       30.05F HX  92
CHINA LAKE     PTSUNNY  102  36  10 MISG      29.96F HX  96
EDWARDS AFB    PTSUNNY  100  22   6 SW6       29.98F HX  92
MOJAVE         FAIR      99  28   8 S15       30.02F HX  92
NEEDLES        SUNNY    106  59  21 VRB6      29.89F HX 106
VICTORVILLE    PTSUNNY   99  41  13 CALM      30.03F HX  94

$$

CAZ039-040-262100-
VENTURA AND SANTA BARBARA COUNTY COAST


CITY           SKY/WX    TMP DP  RH WIND       PRES   REMARKS
CAMARILLO      SUNNY     78  64  61 S13       29.97F
NWS OXNARD       N/A     78  64  61 SW6       29.97F
OXNARD AIRPORT SUNNY     72  62  71 SW8       29.98F
*POINT MUGU    PTSUNNY   76  64  66 S9        29.98F
SBA APT/GOLETA MOSUNNY   73  61  65 VRB3      29.98F
*SANTA BARBARA   N/A     77  61  59 CALM      30.06F
*VENTURA         N/A     76  63  64 SW6       29.99F

$$

CAZ044-045-262100-
VENTURA COUNTY VALLEYS


CITY           SKY/WX    TMP DP  RH WIND       PRES   REMARKS
*SIMI VALLEY     N/A     87  65  46 SW7       29.89F
*OJAI            N/A     93  62  35 W3        29.87F HX  93
*FILLMORE        N/A     91  67  45 SW1       29.84F HX  94

$$

CAZ053-262100-
VENTURA COUNTY MOUNTAINS


CITY           SKY/WX    TMP DP  RH WIND       PRES   REMARKS
*LOCKWOOD VLY    N/A     86  28  12 MISG        N/A
*ROSE VALLEY     N/A    N/A N/A N/A MISG        N/A

$$

CAZ034-035-036-262100-
CENTRAL COAST AND SANTA YNEZ VALLEY


CITY           SKY/WX    TMP DP  RH WIND       PRES   REMARKS
SAN LUIS OBISP SUNNY     80  58  46 NW8       29.96S
SANTA MARIA    MOSUNNY   75  59  57 NW14      29.98S

CITY           SKY/WX    TMP DP  RH WIND       PRES   REMARKS
*CAL POLY SLO    N/A     82  63  51 S6          N/A
*CAMBRIA         N/A     64  60  87 NE5       29.89S
*LOMPOC          N/A     75  59  57 MISG      29.98F
*PISMO BEACH     N/A     63  60  89 W3        30.00S

$$

CAZ037-038-051-262100-
SAN LUIS OBISPO COUNTY INTERIOR AND CUYAMA VALLEY


CITY           SKY/WX    TMP DP  RH WIND       PRES   REMARKS
*CUYAMA          N/A     95  42  15 NE3       29.83F HX  91
PASO ROBLES    SUNNY     97  43  15 W5        29.93F HX  93

$$

CAZ032-033-061-262100-
SOUTHERN DESERTS


CITY           SKY/WX    TMP DP  RH WIND       PRES   REMARKS
BLYTHE         SUNNY    105  58  21 SW8       29.86F HX 105
IMPERIAL       SUNNY    102  68  33 E12       29.83F HX 108
PALM SPRINGS   MOSUNNY  101  62  27 SE7       29.90F HX 102
THERMAL        SUNNY    105  62  24 SE7       29.82F HX 107

$$

ELSEWHERE ACROSS THE WESTERN UNITED STATES AND MEXICO


CITY           SKY/WX    TMP DP  RH WIND       PRES   REMARKS
DENVER, CO     PTSUNNY   86  43  22 E8        30.18F
GRAND CANYON,  SUNNY     83  46  27 VRB6      30.34F
HONOLULU, HI   MOSUNNY   86  64  48 NE13G21   29.97S
KAHULUI, MAUI  MOSUNNY   84  72  65 NE17      29.98S
LAKE TAHOE, CA SUNNY     81  32  17 N8G17     30.28S
LAS VEGAS, NV  MOSUNNY  102  53  19 S12G18    29.92F HX 100
MAMMOTH LAKES, FAIR      82  16   8 E3        30.32S
MEXICO CITY, M SUNNY     75  48  38 NE8       30.35F
PHOENIX, AZ    MOSUNNY  102  60  25 VRB3      29.89F HX 103
PORTLAND, OR   MOSUNNY   75  55  49 W10       30.12F
RENO, NV       MOSUNNY   90  25   9 NW3       30.13F
SALT LAKE CITY MOSUNNY   89  39  17 W7        30.13F
SAN DIEGO, CA  MOSUNNY   74  63  68 SW8       29.98F
SAN FRANCISCO, MOSUNNY   75  59  57 NW14      29.94S
SAN JOSE, CA   MOSUNNY   85  57  38 NW5       29.91F
SEATTLE, WA    SUNNY     74  54  49 NW9       30.17F
TIJUANA, MEX   MOSUNNY   81  61  50 NW13      29.99F

$$

STATION/POSITION TIME  TEMP    WIND        PRES    VSBY  WAVE
                       AIR SEA DIR/SP/G                  HT/PER
                 (UTC) (F)     (DEG/KT/KT) (MB)    (MI)  (FT/S)
POINT ARGUELLO B NOT AVBL
WEST SANTA BARBA 2000   63 64  230/  2/  4 1015.2F         5/10
POINT CONCEPTION NOT AVBL
EAST SANTA BARBA 2000   63 65   CALM  /  2 1015.8F
SANTA MONICA BAY 2000   67 70  230/  4/  6 1015.1F         2/17



USA.gov is the U.S. government's official web portal to all federal, state and local government web resources and services.